Santa Ana, CA

4:41 PM PST on February 19, 2018 (GMT -0800)
John Wayne-Orange County

Weather History for KSNA - November, 2013

Change the Weather History Date:

Friday, November 1, 2013

  Actual Average Record
Temperature  
Mean Temperature 69 °F 65 °F  
Max Temperature 85 °F 74 °F 88 °F (2010)
Min Temperature 53 °F 56 °F 49 °F (2000)
Degree Days  
Heating Degree Days 0 2  
Month to date heating degree days 0 2  
Since 1 July heating degree days 18 29  
Cooling Degree Days 4 2  
Month to date cooling degree days 4 2  
Year to date cooling degree days 1135 856  
Growing Degree Days 19 (Base 50)    
Moisture  
Dew Point 45 °F    
Average Humidity 44    
Maximum Humidity 72    
Minimum Humidity 16    
Precipitation  
Precipitation 0.00 in 0.08 in 0.19 in (2014)
Month to date precipitation 0.00 0.08  
Year to date precipitation 2.29 10.08  
Since 1 July precipitation 0.32  
Snow  
Snow 0.00 in - - ()
Month to date snowfall 0.0  
Year to date snowfall 0.0  
Snow Depth 0.00 in    
Sea Level Pressure  
Sea Level Pressure 30.01 in    
Wind  
Wind Speed 2 mph (WSW)    
Max Wind Speed 8 mph    
Max Gust Speed 12 mph    
Visibility 10 miles    
Events      
T = Trace of Precipitation, MM = Missing Value Source: NWS Daily Summary

Daily Weather History Graph

Daily Weather History Graph

Search for Another Location

Airport or City:

Trip Planner

Search our weather history database for the weather conditions in past years. The results will help you decide how hot, cold, wet, or windy it might be!

Date:

Astronomy

Nov. 01, 2013 Rise Set
Actual Time 7:10 AM PDT 5:58 PM PDT
Civil Twilight 6:45 AM PDT 6:24 PM PDT
Nautical Twilight 6:15 AM PDT 6:54 PM PDT
Astronomical Twilight 5:46 AM PDT 7:23 PM PDT
Moon 5:12 AM PDT (11/1) 4:51 PM PDT (11/1)
Length of Visible Light 11h 39m
Length of Day
10h 48m
Waning Crescent, 4% of the Moon is Illuminated
Nov 1
Waning Crescent
Nov 3
New
Nov 9
First Quarter
Nov 17
Full
Nov 25
Last Quarter

Hourly Weather History & Observations

Time (PDT) Temp. Dew Point Humidity Pressure Visibility Wind Dir Wind Speed Gust Speed Precip Events Conditions
12:53 AM 57.9 °F 46.9 °F 67% 30.04 in 10.0 mi Calm Calm - N/A   Clear
1:53 AM 57.0 °F 46.9 °F 69% 30.05 in 10.0 mi Calm Calm - N/A   Clear
2:53 AM 55.0 °F 46.0 °F 72% 30.05 in 10.0 mi Calm Calm - N/A   Clear
3:53 AM 55.0 °F 46.0 °F 72% 30.05 in 10.0 mi Calm Calm - N/A   Clear
4:53 AM 55.0 °F 45.0 °F 69% 30.06 in 10.0 mi Calm Calm - N/A   Clear
5:53 AM 54.0 °F 45.0 °F 72% 30.07 in 10.0 mi Calm Calm - N/A   Clear
6:53 AM 54.0 °F 42.1 °F 64% 30.07 in 10.0 mi NNE 3.5 mph - N/A   Clear
7:53 AM 55.9 °F 44.1 °F 64% 30.08 in 10.0 mi Calm Calm - N/A   Clear
8:53 AM 62.1 °F 44.1 °F 52% 30.09 in 10.0 mi Calm Calm - N/A   Clear
9:53 AM 68.0 °F 44.1 °F 42% 30.09 in 10.0 mi Calm Calm - N/A   Clear
10:53 AM 73.0 °F 44.1 °F 35% 30.08 in 10.0 mi Calm Calm - N/A   Clear
11:53 AM 75.0 °F 39.0 °F 27% 30.06 in 10.0 mi WNW 3.5 mph - N/A   Clear
12:53 PM 80.1 °F 37.0 °F 21% 30.03 in 10.0 mi Calm Calm - N/A   Clear
1:53 PM 84.0 °F 35.1 °F 17% 29.99 in 10.0 mi West 5.8 mph - N/A   Clear
2:53 PM 84.0 °F 33.1 °F 16% 29.96 in 10.0 mi SW 6.9 mph - N/A   Clear
3:53 PM 82.0 °F 44.1 °F 26% 29.94 in 10.0 mi WSW 6.9 mph - N/A   Clear
4:53 PM 82.0 °F 39.9 °F 22% 29.92 in 10.0 mi West 4.6 mph - N/A   Clear
5:53 PM 75.0 °F 43.0 °F 32% 29.92 in 10.0 mi SSW 6.9 mph - N/A   Clear
6:53 PM 69.1 °F 53.1 °F 57% 29.93 in 10.0 mi South 3.5 mph - N/A   Clear
7:53 PM 66.0 °F 55.0 °F 68% 29.95 in 10.0 mi SSW 5.8 mph - N/A   Clear
8:53 PM 66.0 °F 55.0 °F 68% 29.95 in 10.0 mi Calm Calm - N/A   Clear
9:53 PM 66.0 °F 54.0 °F 65% 29.96 in 10.0 mi Calm Calm - N/A   Clear
10:53 PM 64.0 °F 52.0 °F 65% 29.97 in 10.0 mi Calm Calm - N/A   Clear
11:53 PM 62.1 °F 46.9 °F 58% 29.98 in 10.0 mi Calm Calm - N/A   Clear